DW6513 Weather Reports


time (UTC)temp
C
wind
direction
speed
KPH
gust
KPH
rain 1hr
cm
rain 24hr
cm
rain mn
cm
humidity
%
barometer
mb
20260903062305 26 212 0.0 0.0 0.00 0.00 0.00 62 1015.2
20260903061802 26 115 1.6 4.8 0.00 0.00 0.00 62 1015.2
20260903061302 26 145 1.6 0.0 0.00 0.00 0.00 62 1015.2
20260903055306 26 212 1.6 0.0 0.00 0.00 0.00 61 1015.1
20260903054802 26 126 1.6 4.8 0.00 0.00 0.00 61 1015.2
20260903054302 26 145 1.6 4.8 0.00 0.00 0.00 61 1015.2
20260903053802 26 118 1.6 3.2 0.00 0.00 0.00 60 1015.2
20260903053302 26 104 1.6 4.8 0.00 0.00 0.00 60 1015.2
20260903052802 26 119 1.6 3.2 0.00 0.00 0.00 60 1014.9
20260903052302 26 122 1.6 3.2 0.00 0.00 0.00 60 1014.9
20260903051801 27 99 3.2 4.8 0.00 0.00 0.00 60 1014.9
20260903051302 27 109 3.2 8.0 0.00 0.00 0.00 59 1014.9
20260903050818 27 121 1.6 8.0 0.00 0.00 0.00 59 1015.2
20260903050302 27 100 1.6 4.8 0.00 0.00 0.00 59 1015.2
20260903045802 27 148 1.6 3.2 0.00 0.00 0.00 59 1015.2
20260903045306 27 100 3.2 4.8 0.00 0.00 0.00 59 1015.2
20260903044802 27 123 1.6 4.8 0.00 0.00 0.00 59 1015.0
20260903044302 27 140 1.6 8.0 0.00 0.00 0.00 59 1015.0
20260903043802 27 102 1.6 4.8 0.00 0.00 0.00 58 1015.0
20260903043302 27 107 0.0 3.2 0.00 0.00 0.00 58 1015.0
20260903042802 27 278 0.0 3.2 0.00 0.00 0.00 58 1015.0
20260903042305 27 148 1.6 3.2 0.00 0.00 0.00 58 1015.0
20260903041802 27 147 1.6 3.2 0.00 0.00 0.00 57 1015.0
20260903041302 27 251 1.6 8.0 0.00 0.00 0.00 58 1015.0
20260903040804 27 100 1.6 8.0 0.00 0.00 0.00 57 1014.9
20260903035802 28 102 1.6 8.0 0.00 0.00 0.00 57 1015.1
20260903035306 28 145 1.6 4.8 0.00 0.00 0.00 57 1015.1
20260903034802 28 148 1.6 8.0 0.00 0.00 0.00 57 1015.2
20260903034302 28 115 0.0 0.0 0.00 0.00 0.00 57 1015.2
20260903033802 28 233 0.0 0.0 0.00 0.00 0.00 57 1015.2
20260903033302 28 150 0.0 0.0 0.00 0.00 0.00 57 1015.2
20260903032803 28 146 1.6 8.0 0.00 0.00 0.00 57 1015.1
20260903032305 28 159 1.6 4.8 0.00 0.00 0.00 57 1015.1
20260903031802 28 100 0.0 4.8 0.00 0.00 0.00 57 1015.1
20260903031302 28 145 1.6 3.2 0.00 0.00 0.00 57 1015.1
20260903030802 28 145 1.6 8.0 0.00 0.00 0.00 57 1015.1
20260903030302 28 106 1.6 8.0 0.00 0.00 0.00 57 1015.1
20260903025305 28 109 1.6 4.8 0.00 0.00 0.00 56 1015.1
20260903024302 28 128 0.0 0.0 0.00 0.00 0.00 56 1014.8
20260903023803 28 13 0.0 3.2 0.00 0.00 0.00 55 1014.8
20260903023302 28 58 0.0 3.2 0.00 0.00 0.00 55 1014.8
20260903022802 28 214 1.6 4.8 0.00 0.00 0.00 55 1014.7
20260903022305 29 224 1.6 8.0 0.00 0.00 0.00 55 1014.7
20260903021802 29 164 0.0 8.0 0.00 0.00 0.00 55 1014.7
20260903021302 29 337 1.6 3.2 0.00 0.00 0.00 55 1014.7
20260903020803 29 261 1.6 9.7 0.00 0.00 0.00 54 1014.8
20260903015802 29 119 1.6 4.8 0.00 0.00 0.00 54 1014.8
20260903014802 29 228 1.6 8.0 0.00 0.00 0.00 54 1014.6
20260903014302 30 311 1.6 8.0 0.00 0.00 0.00 53 1014.5
20260903013802 30 288 1.6 3.2 0.00 0.00 0.00 52 1014.5
20260903012802 30 247 1.6 4.8 0.00 0.00 0.00 50 1014.1
20260903012306 30 85 1.6 8.0 0.00 0.00 0.00 50 1014.0
20260903011803 30 281 1.6 3.2 0.00 0.00 0.00 49 1014.0
20260903010802 30 189 1.6 8.0 0.00 0.00 0.00 48 1014.2
20260903010303 30 348 1.6 3.2 0.00 0.00 0.00 47 1014.2
20260903005803 31 214 1.6 4.8 0.00 0.00 0.00 47 1014.2
20260903005306 31 86 1.6 11.3 0.00 0.00 0.00 47 1014.2
20260903004302 31 145 1.6 8.0 0.00 0.00 0.00 44 1014.1
20260903003802 31 277 1.6 4.8 0.00 0.00 0.00 43 1014.1
20260903003303 31 101 0.0 8.0 0.00 0.00 0.00 42 1014.1
20260903002802 32 170 1.6 8.0 0.00 0.00 0.00 41 1014.2
20260903002306 32 235 1.6 4.8 0.00 0.00 0.00 40 1014.2
20260903001803 32 103 1.6 4.8 0.00 0.00 0.00 38 1014.2
20260903001303 32 137 1.6 4.8 0.00 0.00 0.00 37 1014.2
20260903000303 33 163 3.2 3.2 0.00 0.00 0.00 36 1013.7
20260902235802 33 80 3.2 8.0 0.00 0.00 0.00 36 1013.7
20260902235305 33 88 1.6 4.8 0.00 0.00 0.00 35 1013.7
20260902233802 33 256 1.6 9.7 0.00 0.00 0.00 34 1013.9
20260902232802 34 350 3.2 8.0 0.00 0.00 0.00 32 1014.2
20260902232306 34 137 3.2 12.9 0.00 0.00 0.00 32 1014.2
20260902231302 35 100 3.2 9.7 0.00 0.00 0.00 29 1014.2
20260902230803 36 171 3.2 4.8 0.00 0.00 0.00 26 1014.1
20260902230302 37 129 1.6 8.0 0.00 0.00 0.00 25 1014.1
20260902225802 38 97 0.0 3.2 0.00 0.00 0.00 25 1014.1
20260902225306 38 249 1.6 4.8 0.00 0.00 0.00 24 1014.1
20260902224802 38 146 1.6 4.8 0.00 0.00 0.00 25 1013.9
20260902223803 38 144 3.2 8.0 0.00 0.00 0.00 24 1013.9
20260902223302 38 135 3.2 9.7 0.00 0.00 0.00 24 1013.9
20260902222803 38 100 3.2 9.7 0.00 0.00 0.00 26 1014.2
20260902222305 37 100 3.2 8.0 0.00 0.00 0.00 27 1014.1
20260902221803 37 100 3.2 9.7 0.00 0.00 0.00 27 1014.1
20260902221304 37 117 6.4 14.5 0.00 0.00 0.00 28 1014.1
20260902220802 37 57 8.0 22.5 0.00 0.00 0.00 28 1014.2
20260902215802 38 122 3.2 9.7 0.00 0.00 0.00 27 1014.2
20260902215306 37 122 3.2 11.3 0.00 0.00 0.00 28 1014.2
20260902214802 38 122 1.6 9.7 0.00 0.00 0.00 28 1014.4
20260902214303 38 201 4.8 9.7 0.00 0.00 0.00 27 1014.4
20260902213302 38 122 4.8 12.9 0.00 0.00 0.00 27 1014.4
20260902212803 38 57 3.2 9.7 0.00 0.00 0.00 29 1014.5
20260902210802 38 101 3.2 11.3 0.00 0.00 0.00 30 1014.8
20260902210302 38 302 6.4 9.7 0.00 0.00 0.00 32 1014.8
20260902205802 37 146 8.0 19.3 0.00 0.00 0.00 31 1014.8
20260902205306 37 126 4.8 19.3 0.00 0.00 0.00 31 1014.8
20260902204802 37 99 8.0 16.1 0.00 0.00 0.00 33 1014.9
20260902204302 37 110 6.4 16.1 0.00 0.00 0.00 32 1014.9
20260902203803 37 100 8.0 14.5 0.00 0.00 0.00 32 1014.9
20260902203304 37 135 4.8 22.5 0.00 0.00 0.00 33 1014.9
20260902202803 37 172 4.8 22.5 0.00 0.00 0.00 32 1015.0
20260902202306 37 25 8.0 11.3 0.00 0.00 0.00 33 1015.0
20260902201802 36 117 4.8 9.7 0.00 0.00 0.00 33 1015.0
20260902201302 36 226 3.2 8.0 0.00 0.00 0.00 34 1015.0
20260902200303 36 311 9.7 12.9 0.00 0.00 0.00 32 1015.4
20260902195802 37 117 6.4 16.1 0.00 0.00 0.00 32 1015.4
20260902195306 37 156 4.8 16.1 0.00 0.00 0.00 32 1015.4
20260902194802 37 143 4.8 8.0 0.00 0.00 0.00 33 1015.5
20260902194303 38 230 6.4 4.8 0.00 0.00 0.00 33 1015.5
20260902193803 37 214 8.0 11.3 0.00 0.00 0.00 33 1015.5
20260902193302 37 136 8.0 16.1 0.00 0.00 0.00 33 1015.5
20260902192802 37 100 4.8 19.3 0.00 0.00 0.00 33 1015.6
20260902192306 37 145 4.8 19.3 0.00 0.00 0.00 35 1015.6
20260902191803 36 146 3.2 9.7 0.00 0.00 0.00 36 1015.6
20260902191302 36 302 4.8 4.8 0.00 0.00 0.00 37 1015.6
20260902185802 36 123 8.0 11.3 0.00 0.00 0.00 36 1016.0
20260902185306 36 99 8.0 14.5 0.00 0.00 0.00 37 1016.0
20260902184803 36 145 8.0 14.5 0.00 0.00 0.00 37 1016.0
20260902184302 36 94 8.0 11.3 0.00 0.00 0.00 37 1016.0
20260902183802 36 100 8.0 24.1 0.00 0.00 0.00 38 1016.0
20260902183303 36 110 4.8 14.5 0.00 0.00 0.00 38 1016.0
20260902182802 36 144 3.2 9.7 0.00 0.00 0.00 40 1016.2
20260902182306 35 171 6.4 14.5 0.00 0.00 0.00 41 1016.2
20260902181802 34 99 8.0 14.5 0.00 0.00 0.00 42 1016.2
20260902181302 33 320 8.0 19.3 0.00 0.00 0.00 41 1016.2
20260902180303 33 117 9.7 12.9 0.00 0.00 0.00 43 1016.5
20260902175803 33 300 9.7 14.5 0.00 0.00 0.00 43 1016.5
20260902175307 33 273 8.0 20.9 0.00 0.00 0.00 44 1016.5
20260902174803 33 81 8.0 20.9 0.00 0.00 0.00 45 1016.8
20260902173802 32 260 4.8 11.3 0.00 0.00 0.00 48 1016.8
20260902173303 32 162 9.7 16.1 0.00 0.00 0.00 48 1016.8
20260902171303 31 341 9.7 24.1 0.00 0.00 0.00 48 1017.0
20260902170802 32 100 8.0 24.1 0.00 0.00 0.00 47 1017.1
20260902165803 31 122 8.0 19.3 0.00 0.00 0.00 49 1017.1
20260902165308 31 88 9.7 19.3 0.00 0.00 0.00 48 1017.1
20260902164803 31 322 8.0 25.7 0.00 0.00 0.00 48 1017.2
20260902164302 31 83 9.7 29.0 0.00 0.00 0.00 48 1017.2
20260902163802 31 324 9.7 29.0 0.00 0.00 0.00 49 1017.2
20260902163303 31 100 12.9 24.1 0.00 0.00 0.00 48 1017.2
20260902162802 31 210 11.3 24.1 0.00 0.00 0.00 48 1017.3
20260902162306 31 250 9.7 16.1 0.00 0.00 0.00 50 1017.3
20260902161802 31 77 9.7 29.0 0.00 0.00 0.00 50 1017.3
20260902161302 30 83 8.0 29.0 0.00 0.00 0.00 50 1017.3
20260902160803 30 347 8.0 12.9 0.00 0.00 0.00 51 1017.6
20260902155803 30 303 11.3 16.1 0.00 0.00 0.00 51 1017.6
20260902155306 30 83 12.9 16.1 0.00 0.00 0.00 51 1017.6
20260902154802 30 256 12.9 14.5 0.00 0.00 0.00 51 1017.1
20260902154303 30 94 9.7 19.3 0.00 0.00 0.00 51 1017.1
20260902153802 30 257 9.7 29.0 0.00 0.00 0.00 51 1017.1
20260902153303 30 140 8.0 29.0 0.00 0.00 0.00 51 1017.1
20260902152803 30 75 8.0 12.9 0.00 0.00 0.00 53 1017.3
20260902152307 30 118 8.0 16.1 0.00 0.00 0.00 53 1017.3
20260902151803 30 101 8.0 8.0 0.00 0.00 0.00 56 1017.3
20260902151303 29 42 4.8 11.3 0.00 0.00 0.00 56 1017.3
20260902150803 29 258 4.8 9.7 0.00 0.00 0.00 57 1017.1
20260902145803 28 166 3.2 11.3 0.00 0.00 0.00 58 1017.1
20260902145305 28 78 4.8 11.3 0.00 0.00 0.00 58 1017.1
20260902144802 28 115 4.8 9.7 0.00 0.00 0.00 59 1017.2
20260902144303 28 145 4.8 11.3 0.00 0.00 0.00 59 1017.2
20260902143802 28 158 3.2 9.7 0.00 0.00 0.00 60 1017.2
20260902143303 28 154 4.8 8.0 0.00 0.00 0.00 60 1017.2
20260902142803 27 251 3.2 11.3 0.00 0.00 0.00 60 1017.1
20260902141802 27 237 3.2 8.0 0.00 0.00 0.00 61 1017.1
20260902141302 27 145 3.2 12.9 0.00 0.00 0.00 62 1017.1
20260902140802 27 121 3.2 12.9 0.00 0.00 0.00 62 1017.4
20260902135306 26 158 1.6 8.0 0.00 0.00 0.00 65 1017.4
20260902134303 26 145 1.6 8.0 0.00 0.00 0.00 67 1017.6
20260902133802 26 55 1.6 8.0 0.00 0.00 0.00 67 1017.6
20260902133303 26 122 1.6 8.0 0.00 0.00 0.00 69 1017.6
20260902132803 25 143 0.0 8.0 0.00 0.00 0.00 70 1016.9
20260902132306 25 80 0.0 0.0 0.00 0.00 0.00 70 1016.9
20260902131303 25 120 0.0 3.2 0.00 0.00 0.00 71 1016.9
20260902130803 25 348 0.0 0.0 0.00 0.00 0.00 72 1017.5
20260902130302 24 101 0.0 0.0 0.00 0.00 0.00 73 1017.5
20260902125803 24 143 0.0 0.0 0.00 0.00 0.00 73 1017.5
20260902125305 24 127 0.0 0.0 0.00 0.00 0.00 73 1017.5
20260902124303 24 110 0.0 3.2 0.00 0.00 0.00 74 1017.2
20260902123803 23 139 0.0 3.2 0.00 0.00 0.00 75 1017.2
20260902123302 23 62 0.0 0.0 0.00 0.00 0.00 75 1017.2
20260902122802 23 212 0.0 0.0 0.00 0.00 0.00 76 1017.2
20260902122305 23 163 0.0 0.0 0.00 0.00 0.00 77 1017.2
20260902121803 23 250 0.0 0.0 0.00 0.00 0.00 76 1017.2
20260902121303 23 176 0.0 0.0 0.00 0.00 0.00 76 1017.2
20260902120303 23 181 0.0 0.0 0.00 0.00 0.00 77 1016.9
20260902115803 23 121 0.0 0.0 0.00 0.00 0.00 76 1016.9
20260902115306 23 100 0.0 0.0 0.00 0.00 0.00 75 1016.9
20260902114302 23 100 0.0 0.0 0.00 0.00 0.00 73 1016.6
20260902113802 23 80 0.0 0.0 0.00 0.00 0.00 74 1016.6
20260902113303 23 145 0.0 0.0 0.00 0.00 0.00 74 1016.6
20260902112802 23 167 0.0 0.0 0.00 0.00 0.00 74 1016.7
20260902112305 23 143 0.0 0.0 0.00 0.00 0.00 75 1016.7
20260902111803 23 146 0.0 0.0 0.00 0.00 0.00 74 1016.7
20260902111303 23 129 0.0 0.0 0.00 0.00 0.00 74 1016.7
20260902110803 23 145 0.0 0.0 0.00 0.00 0.00 74 1016.6
20260902110303 23 92 0.0 0.0 0.00 0.00 0.00 74 1016.6
20260902105306 23 125 0.0 0.0 0.00 0.00 0.00 74 1016.5
20260902104803 23 278 0.0 0.0 0.00 0.00 0.00 73 1016.4
20260902104302 23 195 0.0 0.0 0.00 0.00 0.00 73 1016.4
20260902103804 23 279 0.0 0.0 0.00 0.00 0.00 73 1016.4
20260902103302 23 186 0.0 0.0 0.00 0.00 0.00 73 1016.4
20260902102803 23 322 0.0 0.0 0.00 0.00 0.00 72 1016.3
20260902102307 23 145 0.0 0.0 0.00 0.00 0.00 72 1016.3
20260902101803 23 187 0.0 0.0 0.00 0.00 0.00 72 1016.3
20260902100802 23 56 0.0 3.2 0.00 0.00 0.00 72 1016.2
20260902095306 24 154 0.0 0.0 0.00 0.00 0.00 71 1016.2
20260902094802 24 209 0.0 0.0 0.00 0.00 0.00 71 1015.7
20260902094302 24 127 0.0 0.0 0.00 0.00 0.00 71 1015.7
20260902093803 24 325 0.0 0.0 0.00 0.00 0.00 71 1015.7
20260902093302 24 285 0.0 4.8 0.00 0.00 0.00 71 1015.7
20260902092803 24 144 0.0 4.8 0.00 0.00 0.00 71 1016.0
20260902092305 24 136 0.0 0.0 0.00 0.00 0.00 71 1016.0
20260902091803 24 57 0.0 0.0 0.00 0.00 0.00 71 1016.0
20260902091303 24 114 0.0 0.0 0.00 0.00 0.00 71 1016.0
20260902090803 24 142 0.0 3.2 0.00 0.00 0.00 71 1016.0
20260902090302 24 124 0.0 3.2 0.00 0.00 0.00 71 1016.0
20260902085803 24 147 1.6 0.0 0.00 0.00 0.00 71 1016.0
20260902085306 24 100 1.6 4.8 0.00 0.00 0.00 71 1016.0
20260902084803 24 122 1.6 3.2 0.00 0.00 0.00 71 1016.0
20260902084303 24 140 1.6 3.2 0.00 0.00 0.00 71 1016.0
20260902083803 25 121 1.6 3.2 0.00 0.00 0.00 71 1016.0
20260902082803 25 123 1.6 4.8 0.00 0.00 0.00 70 1015.7